TimeCST,TemperatureF,Dew PointF,Humidity,Sea Level PressureIn,VisibilityMPH,Wind Direction,Wind SpeedMPH,Gust SpeedMPH,PrecipitationIn,Events,Conditions,WindDirDegrees,DateUTC
12:53 AM,30.0,15.1,54,30.18,10.0,West,4.6,-,N/A,,Clear,270,2013-02-20 06:53:00
1:53 AM,28.9,15.1,56,30.19,10.0,WNW,6.9,-,N/A,,Clear,290,2013-02-20 07:53:00
2:53 AM,28.0,15.1,58,30.18,10.0,NW,6.9,-,N/A,,Clear,320,2013-02-20 08:53:00
3:53 AM,26.1,14.0,60,30.19,10.0,NNW,10.4,-,N/A,,Clear,330,2013-02-20 09:53:00
4:53 AM,24.1,14.0,65,30.21,10.0,NNW,9.2,-,N/A,,Clear,330,2013-02-20 10:53:00
5:53 AM,21.9,12.9,68,30.21,10.0,North,5.8,-,N/A,,Clear,360,2013-02-20 11:53:00
7:53 AM,23.0,12.9,65,30.25,10.0,North,6.9,-,N/A,,Clear,10,2013-02-20 13:53:00
8:53 AM,25.0,12.9,60,30.26,10.0,NNW,4.6,-,N/A,,Clear,330,2013-02-20 14:53:00
9:53 AM,28.0,12.0,51,30.26,10.0,WNW,3.5,-,N/A,,Clear,300,2013-02-20 15:53:00
10:53 AM,32.0,12.0,44,30.27,10.0,NNW,6.9,-,N/A,,Clear,340,2013-02-20 16:53:00
11:53 AM,32.0,10.0,40,30.24,10.0,North,9.2,-,N/A,,Clear,350,2013-02-20 17:53:00
12:53 PM,33.1,10.0,38,30.22,10.0,NW,9.2,-,N/A,,Clear,310,2013-02-20 18:53:00
1:53 PM,33.1,9.0,37,30.22,10.0,NNW,5.8,-,N/A,,Clear,340,2013-02-20 19:53:00
4:53 PM,30.9,12.0,46,30.23,10.0,North,6.9,-,N/A,,Clear,10,2013-02-20 22:53:00
5:53 PM,28.9,12.9,51,30.24,10.0,North,3.5,-,N/A,,Clear,360,2013-02-20 23:53:00
6:53 PM,28.0,12.9,53,30.25,10.0,North,3.5,-,N/A,,Clear,10,2013-02-21 00:53:00
7:53 PM,27.0,14.0,58,30.22,10.0,NE,4.6,-,N/A,,Clear,50,2013-02-21 01:53:00
8:53 PM,26.1,12.9,58,30.23,10.0,NNE,4.6,-,N/A,,Clear,30,2013-02-21 02:53:00
9:53 PM,25.0,12.9,60,30.23,10.0,NNE,4.6,-,N/A,,Clear,30,2013-02-21 03:53:00
10:53 PM,24.1,12.9,62,30.21,10.0,Calm,Calm,-,N/A,,Clear,0,2013-02-21 04:53:00
11:53 PM,25.0,14.0,63,30.21,10.0,NE,5.8,-,N/A,,Clear,40,2013-02-21 05:53:00